Location: Passau
(48.5830°N, 13.4830°E)
Time: 20:19:07
(UTC+02:00)

Vanguard 3 - Pass Details

Date: 19 May 2024
Orbit: 509 x 3231 km, 33.3° (Epoch: 15 June)

Event Time Altitude Azimuth Distance (km) Brightness Sun altitude
Rises 20:47:49 0° 228° (SW) 4,596 11.2 -1.1°
Reaches altitude 10° 20:50:43 10° 219° (SW) 3,946 10.8 -1.5°
Maximum altitude 21:00:38 37° 158° (SSE) 3,249 9.8 -2.8°
Drops below altitude 10° 21:15:31 10° 100° (E) 5,914 11.0 -4.8°
Sets 21:21:04 0° 94° (E) 7,118 11.4 -5.5°
